GW3425 Weather Reports


time (UTC)temp
C
wind
direction
speed
KPH
gust
KPH
rain 1hr
cm
rain 24hr
cm
rain mn
cm
humidity
%
barometer
mb
20260506081601 23 101 0.0 3.2 0.00 0.00 0.00 90 1007.6
20260506073014 23 155 0.0 3.2 0.00 0.00 0.00 90 1007.9
20260506071604 23 128 0.0 6.4 0.00 0.00 0.00 90 1008.1
20260506061507 24 114 0.0 9.7 0.00 0.00 0.00 89 1008.3
20260506050104 25 44 0.0 6.4 0.00 0.00 0.00 87 1008.3
20260506044547 25 89 3.2 9.7 0.00 0.00 0.00 86 1008.4
20260506043033 25 137 0.0 9.7 0.00 0.00 0.00 86 1008.3
20260506041519 25 109 3.2 8.0 0.00 0.00 0.00 86 1008.1
20260506040004 25 151 1.6 8.0 0.00 0.00 0.00 85 1008.0
20260506034557 25 121 3.2 11.3 0.00 0.00 0.00 85 1008.1
20260506033040 25 116 0.0 3.2 0.00 0.00 0.00 85 1007.6
20260506031532 25 73 1.6 9.7 0.00 0.00 0.00 84 1007.5
20260506030004 25 178 0.0 6.4 0.00 0.00 0.00 84 1007.1
20260506024555 25 102 1.6 8.0 0.00 0.00 0.00 83 1006.7
20260506023058 26 40 1.6 12.9 0.00 0.00 0.00 82 1006.6
20260506021541 26 119 1.6 14.5 0.00 0.00 0.00 82 1006.6
20260506020013 26 229 1.6 9.7 0.00 0.00 0.00 81 1006.2
20260506014606 27 149 1.6 11.3 0.00 0.00 0.00 80 1006.0
20260506013059 27 102 1.6 9.7 0.00 0.00 0.00 78 1006.0
20260506011533 27 115 0.0 4.8 0.00 0.00 0.00 77 1005.9
20260506010019 27 128 0.0 3.2 0.00 0.00 0.00 76 1005.7
20260506004505 28 128 0.0 6.4 0.00 0.00 0.00 75 1005.5
20260506003057 28 205 0.0 6.4 0.00 0.00 0.00 74 1005.5
20260506001541 28 146 0.0 1.6 0.00 0.00 0.00 74 1005.5
20260506000026 28 101 0.0 12.9 0.00 0.00 0.00 73 1005.2
20260505234514 28 129 0.0 6.4 0.00 0.00 0.00 73 1005.1
20260505233106 28 237 1.6 9.7 0.00 0.00 0.00 73 1005.0
20260505231604 29 360 0.0 11.3 0.00 0.00 0.00 72 1004.8
20260505230034 29 169 1.6 9.7 0.00 0.00 0.00 70 1004.8
20260505224518 29 206 4.8 12.9 0.00 0.00 0.00 70 1004.8
20260505223003 29 238 3.2 9.7 0.00 0.00 0.00 71 1005.0
20260505221600 29 230 4.8 17.7 0.00 0.00 0.00 69 1005.1
20260505220039 28 187 0.0 8.0 0.00 0.00 0.00 72 1005.2
20260505214525 29 229 1.6 11.3 0.00 0.00 0.00 70 1005.6
20260505213016 28 194 1.6 8.0 0.00 0.00 0.00 71 1005.7
20260505211600 28 119 0.0 11.3 0.00 0.00 0.00 73 1005.9
20260505210046 29 225 3.2 11.3 0.00 0.00 0.00 71 1006.0
20260505204528 28 128 3.2 12.9 0.00 0.00 0.00 73 1006.4
20260505203022 28 252 1.6 12.9 0.00 0.00 0.00 73 1006.7
20260505201605 28 162 3.2 11.3 0.00 0.00 0.00 72 1006.8
20260505200052 28 165 4.8 12.9 0.00 0.00 0.00 73 1007.0
20260505194533 28 246 4.8 12.9 0.00 0.00 0.00 73 1007.3
20260505193029 28 286 1.6 9.7 0.00 0.00 0.00 74 1007.5
20260505191510 27 119 4.8 11.3 0.00 0.00 0.00 75 1007.8
20260505190056 27 250 4.8 14.5 0.00 0.00 0.00 75 1007.9
20260505184541 27 329 3.2 9.7 0.00 0.00 0.00 79 1008.1
20260505183027 26 175 4.8 14.5 0.00 0.00 0.00 79 1008.3
20260505181510 26 37 3.2 9.7 0.00 0.00 0.00 80 1008.3
20260505180103 26 239 3.2 9.7 0.00 0.00 0.00 80 1008.6
20260505174547 25 204 1.6 11.3 0.00 0.00 0.00 82 1008.6
20260505173032 25 178 1.6 8.0 0.00 0.00 0.00 83 1008.6
20260505171517 24 211 1.6 11.3 0.00 0.00 0.00 85 1008.8
20260505170112 23 142 1.6 12.9 0.00 0.00 0.00 86 1009.1
20260505164553 23 138 1.6 16.1 0.00 0.00 0.00 87 1008.9
20260505163037 23 144 3.2 12.9 0.00 0.00 0.00 88 1008.9
20260505161521 22 133 3.2 11.3 0.00 0.00 0.00 89 1008.9
20260505153023 22 146 3.2 12.9 0.00 0.00 0.00 92 1008.8
20260505151509 21 130 1.6 9.7 0.00 0.00 0.00 92 1008.9
20260505140116 21 69 6.4 17.7 0.00 0.00 0.00 91 1008.7
20260505124559 21 109 4.8 14.5 0.00 0.00 0.00 90 1008.0
20260505123045 21 76 3.2 12.9 0.00 0.00 0.00 90 1007.9
20260505121530 21 115 3.2 11.3 0.00 0.00 0.00 90 1007.7
20260505120016 21 122 8.0 19.3 0.00 0.00 0.00 90 1007.6
20260505114503 21 139 3.2 9.7 0.00 0.00 0.00 91 1007.5
20260505113053 21 103 1.6 9.7 0.00 0.00 0.00 91 1007.7
20260505111542 21 117 1.6 19.3 0.00 0.00 0.00 91 1007.5
20260505101554 21 141 8.0 16.1 0.00 0.00 0.00 90 1007.7
20260505100035 21 119 4.8 14.5 0.00 0.00 0.00 90 1007.9
20260505094519 21 115 4.8 19.3 0.00 0.00 0.00 90 1007.7
20260505093006 21 121 3.2 16.1 0.00 0.00 0.00 91 1007.8
20260505091555 20 109 0.0 12.9 0.00 0.00 0.00 91 1008.1
20260505090055 20 103 3.2 16.1 0.00 0.00 0.00 91 1008.1
20260505084527 20 129 1.6 12.9 0.00 0.00 0.00 91 1008.2
20260505083011 20 360 1.6 14.5 0.00 0.00 0.00 91 1008.4